[[{"header":{"parameterUnit":"m.s-1","parameterCategory":2,"la1":30.2991,"la2":30.254,"lo1":-89.0895,"lo2":-89.0444,"dy":0.0017,"dx":0.0017,"nx":28,"ny":28,"refTime":"2024-09-30T09:00:00:Z","depth":"0","parameterNumber":2,"parameterNumberName":"U-component_of_CURRENTS"},"data":[0,0,0,0,0,0,0,0,0,0,0,0,0,0,0,0,0,0,0,0,0,0,0,0,0,0,0,0,0,0,0,0,0,0,0,0,0,0,0,0,0,0,0,0,0,0,0,0,0,0,0,0,0,0,0,0,0,0,0.2012,0.2012,0,0.1975,0.1975,0.1974,0.197,0.197,0.1971,0.1971,0.1982,0.1982,0.1982,0,0,0,0,0,0,0,0,0,0,0,0,0,0.2061,0.206,0.2013,0.2012,0.2012,0.1975,0.1975,0.1974,0.1969,0.197,0.1971,0.1971,0.1982,0.1982,0.1982,0,0,0,0,0,0,0,0,0,0,0,0,0,0.2032,0.206,0.2013,0.2007,0.2006,0.1975,0.1974,0.1974,0.1969,0.197,0.1971,0.1972,0.1982,0.1982,0.1982,0.1962,0,0,0.1981,0.198,0,0,0,0,0,0,0,0,0.2033,0.2029,0.2008,0.2007,0.2007,0.198,0.1996,0.1973,0.1969,0.1981,0.1971,0.1972,0.1987,0.1986,0.1973,0.1963,0.1963,0.1981,0.198,0.198,0.198,0,0,0,0,0,0,0,0.2035,0.2031,0.1995,0.2008,0.2007,0.2,0.1997,0.1991,0.1979,0.198,0.198,0.1979,0.1986,0.1974,0.1974,0.1964,0.1981,0.198,0.198,0.198,0.2066,0.2068,0,0,0,0,0,0,0.2044,0.2033,0.1997,0.1995,0.2025,0.1999,0.1995,0.1986,0.1978,0.1978,0.1979,0.1979,0.1974,0.1974,0.1974,0.2031,0.198,0.198,0.198,0.2063,0.2066,0.2069,0,0,0,0,0,0,0.2045,0.2041,0.1998,0.2015,0.201,0.1997,0.1987,0.1985,0.1978,0.1976,0.1977,0.1976,0.1974,0.1975,0.1988,0.2028,0.198,0.1979,0.206,0.2064,0.2068,0.2093,0,0,0,0,0,0,0.2047,0.2041,0.2036,0.2016,0.2009,0.1988,0.1986,0.1983,0.1977,0.1978,0.1974,0.1976,0.1975,0.1989,0.1988,0.2027,0.1979,0.2057,0.2062,0.2066,0.2089,0.2097,0.2104,0,0,0,0,0,0.2048,0.2043,0.2036,0.2032,0.2003,0.1988,0.1984,0.1976,0.1977,0.1974,0.1982,0.1976,0.202,0.1989,0.1988,0.2028,0.2055,0.2061,0.2066,0.2085,0.2095,0.2104,0,0,0,0,0,0,0.2066,0.2041,0.2033,0.2022,0.2009,0.1988,0.1985,0.1977,0.1977,0.1982,0.1981,0.1983,0.2023,0.2021,0.1987,0.2074,0.2047,0.2053,0.2063,0.2072,0.2079,0.2106,0.1979,0,0,0,0,0,0.2065,0.2055,0.2032,0.2026,0.2018,0.2,0.1993,0.1987,0.1984,0.1983,0.198,0.2002,0.2042,0.205,0.2072,0.2092,0.2118,0.213,0.2137,0.2143,0.217,0.2246,0.2262,0.2087,0.2087,0.2087,0,0,0.2074,0.2058,0.2054,0.2029,0.2017,0.2016,0.1998,0.1989,0.1999,0.1986,0.1997,0.2019,0.2056,0.2097,0.2115,0.2097,0.2204,0.2151,0.2155,0.2179,0.2253,0.227,0.2285,0.2091,0.2091,0.209,0,0,0.2095,0.2067,0.207,0.2057,0.2039,0.2027,0.2027,0.2005,0.2005,0.2011,0.2035,0.2082,0.2093,0.2148,0.2177,0.224,0.2244,0.225,0.2299,0.2372,0.2386,0.24,0.2431,0.2447,0.2249,0.2249,0.2249,0,0.2108,0.21,0.2071,0.2071,0.2065,0.2037,0.2044,0.204,0.2028,0.2041,0.2024,0.2107,0.2133,0.2226,0.2266,0.2258,0.2283,0.2251,0.238,0.2394,0.2407,0.2437,0.2454,0.2251,0.225,0.225,0.225,0,0.2133,0.2124,0.2124,0.2115,0.2106,0.2101,0.2091,0.2089,0.2082,0.2086,0.2147,0.218,0.2235,0.2265,0.2287,0.2407,0.2388,0.2379,0.2349,0.2426,0.2452,0.247,0.2253,0.2253,0.2252,0.2252,0,0,0.2156,0.2146,0.2143,0.2138,0.2123,0.2113,0.2138,0.2149,0.2166,0.2176,0.2215,0.2314,0.2324,0.2364,0.2396,0.2475,0.2589,0.2475,0.2477,0.2492,0.2727,0.2618,0.2626,0.2597,0.2601,0.2604,0.2698,0,0.218,0.219,0.218,0.2186,0.2181,0.2168,0.2187,0.2198,0.2202,0.2225,0.229,0.2332,0.2361,0.2386,0.2479,0.2557,0.2642,0.2564,0.2664,0.2667,0.255,0.2646,0.2489,0.2552,0.2715,0.2718,0.272,0,0.2195,0.2195,0.221,0.2203,0.2201,0.2204,0.2213,0.2227,0.227,0.2275,0.2336,0.236,0.2482,0.2483,0.2669,0.2612,0.2695,0.2753,0.2757,0.2666,0.2593,0.251,0.2578,0.2431,0.2747,0.2745,0.2743,0,0.2197,0.2204,0.2213,0.2209,0.2211,0.2217,0.2219,0.2244,0.2248,0.2302,0.2303,0.2427,0.2463,0.2606,0.2708,0.2704,0.2888,0.2883,0.2865,0.2856,0.2751,0.2725,0.2681,0.3048,0.3048,0.3047,0.3047,0,0.2202,0.2201,0.2209,0.2206,0.2205,0.2211,0.2213,0.2229,0.2256,0.2262,0.2323,0.2345,0.2502,0.2597,0.2722,0.2825,0.2894,0.2905,0.2893,0.275,0.2725,0.2614,0.2551,0.3051,0.305,0.3049,0.3049,0,0.2185,0.2198,0.2194,0.2202,0.2197,0.219,0.2177,0.218,0.2206,0.2214,0.2226,0.2303,0.2409,0.254,0.2744,0.2801,0.2822,0.2958,0.2752,0.2714,0.2542,0.2487,0.2402,0.237,0.2965,0.2963,0.2962,0,0.2174,0.2175,0.2175,0.2162,0.2156,0.2143,0.213,0.2148,0.2144,0.2178,0.2182,0.2265,0.23,0.2505,0.2645,0.2807,0.2738,0.2738,0.2723,0.253,0.2463,0.2363,0.2337,0.2591,0.2586,0.2583,0.258,0,0.2147,0.2151,0.215,0.2123,0.2101,0.2076,0.206,0.2049,0.207,0.2069,0.2079,0.2107,0.2252,0.2308,0.2475,0.2581,0.2523,0.2665,0.2544,0.2239,0.2055,0.2015,0.2502,0.2547,0.2551,0.2553,0.2555,0.2556,0.212,0.211,0.2107,0.2073,0.2047,0.2006,0.197,0.1956,0.1935,0.191,0.197,0.1956,0.1993,0.2199,0.228,0.2237,0.233,0.2186,0.2159,0.2095,0.1983,0.2371,0.2345,0.2347,0.2349,0.2351,0.2352,0,0.2073,0.207,0.205,0.2005,0.1956,0.1959,0.1918,0.1872,0.182,0.18,0.1783,0.172,0.1716,0.1775,0.1771,0.1718,0.173,0.1664,0.15,0.1532,0.194,0.1838,0.1605,0.1605,0.1605,0.1605,0.1605,0.1606,0.2051,0.2024,0.2015,0.1925,0.189,0.1808,0.1778,0.1716,0.1683,0.1557,0.1479,0.1451,0.1365,0.1227,0.1138,0.1173,0.1116,0.103,0.1114,0.1364,0.141,0.1454,0.1344,0.101,0.101,0.0644,0.0641,0.0638]},{"header":{"parameterUnit":"m.s-1","parameterCategory":2,"la1":30.2991,"la2":30.254,"lo1":-89.0895,"lo2":-89.0444,"dy":0.0017,"dx":0.0017,"nx":28,"ny":28,"refTime":"2024-09-30T09:00:00:Z","depth":"0","parameterNumber":3,"parameterNumberName":"V-component_of_CURRENTS"},"data":[0,0,0,0,0,0,0,0,0,0,0,0,0,0,0,0,0,0,0,0,0,0,0,0,0,0,0,0,0,0,0,0,0,0,0,0,0,0,0,0,0,0,0,0,0,0,0,0,0,0,0,0,0,0,0,0,0,0,0.055,0.0549,0,0.0528,0.0527,0.0527,0.0512,0.0512,0.0512,0.0512,0.048,0.0479,0.0479,0,0,0,0,0,0,0,0,0,0,0,0,0,0.0567,0.0566,0.055,0.0549,0.0549,0.0528,0.0527,0.0527,0.0512,0.0512,0.0512,0.0511,0.048,0.0479,0.0479,0,0,0,0,0,0,0,0,0,0,0,0,0,0.0554,0.0566,0.055,0.0538,0.0537,0.0528,0.0527,0.0527,0.0512,0.0512,0.0512,0.0511,0.048,0.0479,0.0478,0.0479,0,0,0.0475,0.0475,0,0,0,0,0,0,0,0,0.0555,0.0554,0.054,0.0539,0.0537,0.0521,0.0522,0.051,0.0512,0.0523,0.0512,0.0511,0.0492,0.049,0.0489,0.0477,0.0476,0.0475,0.0475,0.0474,0.0474,0,0,0,0,0,0,0,0.0556,0.0555,0.0542,0.054,0.0538,0.053,0.0528,0.0519,0.051,0.0522,0.052,0.0516,0.0492,0.049,0.0488,0.0475,0.0475,0.0475,0.0474,0.0474,0.0532,0.0534,0,0,0,0,0,0,0.0558,0.0556,0.0543,0.0541,0.0544,0.053,0.0528,0.0528,0.051,0.0507,0.0517,0.0516,0.0491,0.0489,0.0486,0.054,0.0474,0.0473,0.0473,0.053,0.0532,0.0534,0,0,0,0,0,0,0.0558,0.0557,0.0544,0.0547,0.0544,0.053,0.053,0.0527,0.0525,0.0506,0.0503,0.0516,0.0491,0.0488,0.0498,0.0537,0.0473,0.0472,0.0527,0.053,0.0533,0.0612,0,0,0,0,0,0,0.0559,0.0557,0.056,0.0547,0.0544,0.0545,0.053,0.0527,0.0522,0.0521,0.0505,0.0502,0.0491,0.05,0.0497,0.0534,0.0471,0.0524,0.0529,0.0532,0.0607,0.0618,0.0627,0,0,0,0,0,0.056,0.0566,0.0561,0.0559,0.0548,0.0545,0.0543,0.0532,0.0523,0.0527,0.0527,0.0502,0.0524,0.0501,0.0497,0.0534,0.0522,0.0527,0.0532,0.0602,0.0616,0.0627,0,0,0,0,0,0,0.0574,0.0564,0.0559,0.0561,0.0556,0.0542,0.0544,0.0534,0.0536,0.0536,0.0518,0.0516,0.0545,0.0528,0.0503,0.0566,0.0524,0.0528,0.0579,0.0591,0.06,0.0616,0.0471,0,0,0,0,0,0.0579,0.0583,0.057,0.0574,0.0572,0.0558,0.0555,0.0547,0.0544,0.0544,0.0536,0.0541,0.0562,0.0565,0.0572,0.0595,0.0579,0.0622,0.0632,0.064,0.0653,0.0663,0.0675,0.055,0.055,0.055,0,0,0.0585,0.058,0.0582,0.0578,0.0572,0.0581,0.0556,0.0555,0.0573,0.0541,0.0565,0.0569,0.0577,0.0614,0.0626,0.0603,0.0668,0.0646,0.0653,0.0662,0.0669,0.0681,0.0692,0.0554,0.0553,0.0552,0,0,0.0601,0.0596,0.0605,0.0604,0.0597,0.0596,0.0596,0.0588,0.0595,0.0614,0.0614,0.0647,0.065,0.0683,0.0697,0.0765,0.0721,0.0763,0.0824,0.0834,0.0844,0.0852,0.0845,0.0852,0.0768,0.0768,0.0768,0,0.0607,0.0618,0.0607,0.0615,0.0623,0.0606,0.0622,0.0631,0.0631,0.0657,0.0632,0.0693,0.0694,0.077,0.0802,0.079,0.0773,0.0774,0.0846,0.0854,0.0861,0.0852,0.0859,0.0772,0.0772,0.0771,0.0771,0,0.063,0.0639,0.0645,0.0657,0.0666,0.0674,0.0685,0.0704,0.0709,0.0725,0.0787,0.0796,0.0835,0.085,0.0846,0.0917,0.088,0.0855,0.0811,0.0878,0.0864,0.087,0.0779,0.0777,0.0776,0.0775,0,0,0.0641,0.0657,0.066,0.0673,0.0688,0.0697,0.0744,0.0788,0.0829,0.0843,0.0901,0.0959,0.0961,0.0979,0.0981,0.1,0.1041,0.0952,0.0951,0.0938,0.1044,0.1005,0.1007,0.1015,0.1017,0.1018,0.1012,0,0.0661,0.0684,0.0697,0.0732,0.0744,0.0764,0.0811,0.0854,0.0888,0.0939,0.0978,0.1024,0.101,0.1028,0.1053,0.1047,0.106,0.1044,0.0988,0.0986,0.0937,0.1015,0.1036,0.1031,0.1017,0.1018,0.1019,0,0.068,0.0693,0.0725,0.0771,0.0782,0.0807,0.0885,0.0923,0.1004,0.1031,0.1091,0.1105,0.1169,0.1121,0.1152,0.1135,0.1103,0.1085,0.1083,0.1025,0.0959,0.0963,0.1041,0.0976,0.1027,0.1026,0.1026,0,0.0682,0.0719,0.0745,0.0756,0.0804,0.0838,0.0874,0.0953,0.1001,0.1084,0.1122,0.1188,0.1207,0.1201,0.118,0.116,0.1182,0.1145,0.108,0.1075,0.1074,0.1067,0.108,0.1155,0.1155,0.1155,0.1155,0,0.0694,0.0715,0.0744,0.0753,0.0801,0.0839,0.0907,0.0958,0.1039,0.1105,0.1159,0.1212,0.1223,0.1238,0.1206,0.1171,0.1201,0.1112,0.1084,0.1102,0.1097,0.1022,0.0992,0.1155,0.1155,0.1155,0.1155,0,0.0683,0.0703,0.0728,0.0776,0.0794,0.0824,0.0902,0.0958,0.1032,0.1115,0.114,0.1229,0.1256,0.1256,0.1245,0.1196,0.1152,0.1136,0.115,0.1125,0.0994,0.0968,0.1,0.1005,0.1073,0.1072,0.1072,0,0.0677,0.0685,0.0726,0.0742,0.076,0.0809,0.0853,0.0938,0.0999,0.1125,0.1166,0.1228,0.1281,0.1264,0.1214,0.1165,0.1131,0.1113,0.109,0.1011,0.0962,0.0978,0.0983,0.1118,0.1118,0.1118,0.1118,0,0.0659,0.0669,0.0689,0.0721,0.0757,0.0809,0.0876,0.092,0.1029,0.1102,0.1199,0.1252,0.127,0.1256,0.119,0.1153,0.1104,0.1103,0.1037,0.1023,0.1031,0.1013,0.1077,0.1116,0.1116,0.1116,0.1117,0.1117,0.0637,0.0647,0.0672,0.0705,0.0749,0.081,0.0849,0.0926,0.1012,0.1128,0.1191,0.1271,0.1267,0.1202,0.1151,0.1043,0.1066,0.099,0.0971,0.0998,0.0998,0.1046,0.1037,0.1037,0.1037,0.1037,0.1037,0,0.0608,0.0631,0.0661,0.0707,0.0751,0.0785,0.0871,0.0914,0.0995,0.1105,0.1187,0.1232,0.1192,0.1144,0.1014,0.0923,0.095,0.0875,0.0913,0.0928,0.098,0.0973,0.0933,0.0933,0.0933,0.0933,0.0934,0.0934,0.0596,0.0612,0.0637,0.0698,0.0737,0.0793,0.0837,0.0899,0.0979,0.1076,0.1135,0.1192,0.1136,0.0963,0.0824,0.0808,0.0789,0.0791,0.0762,0.0778,0.0788,0.0797,0.0783,0.0704,0.0704,0.0759,0.0759,0.0759]}],[{"header":{"parameterUnit":"m.s-1","parameterCategory":2,"la1":30.2991,"la2":30.254,"lo1":-89.0895,"lo2":-89.0444,"dy":0.0017,"dx":0.0017,"nx":28,"ny":28,"refTime":"2024-09-30T09:00:00:Z","depth":"2","parameterNumber":2,"parameterNumberName":"U-component_of_CURRENTS"},"data":[0,0,0,0,0,0,0,0,0,0,0,0,0,0,0,0,0,0,0,0,0,0,0,0,0,0,0,0,0,0,0,0,0,0,0,0,0,0,0,0,0,0,0,0,0,0,0,0,0,0,0,0,0,0,0,0,0,0,0.1114,0.1113,0,0.1079,0.1078,0.1078,0.1082,0.1083,0.1084,0.1085,0.1155,0.1156,0.1158,0,0,0,0,0,0,0,0,0,0,0,0,0,0.1182,0.118,0.1114,0.1113,0.1113,0.1079,0.1078,0.1077,0.1082,0.1083,0.1084,0.1085,0.1155,0.1156,0.1158,0,0,0,0,0,0,0,0,0,0,0,0,0,0.1148,0.118,0.1114,0.1113,0.1113,0.1079,0.1078,0.1077,0.1082,0.1083,0.1084,0.1086,0.1155,0.1156,0.1158,0.1145,0,0,0.1163,0.1164,0,0,0,0,0,0,0,0,0.115,0.1145,0.1113,0.1113,0.1113,0.1088,0.1128,0.1106,0.1082,0.1091,0.1085,0.1086,0.1143,0.1146,0.1132,0.1149,0.1152,0.1163,0.1164,0.1165,0.1166,0,0,0,0,0,0,0,0.1152,0.1147,0.1098,0.1113,0.1113,0.1114,0.111,0.1123,0.1112,0.1091,0.1092,0.1091,0.1144,0.113,0.1134,0.1153,0.1163,0.1165,0.1166,0.1167,0.1345,0.1348,0,0,0,0,0,0,0.1159,0.1148,0.1099,0.1097,0.1137,0.1112,0.1107,0.1093,0.1109,0.1112,0.109,0.1091,0.1127,0.1132,0.1137,0.1209,0.1165,0.1167,0.1168,0.1341,0.1346,0.135,0,0,0,0,0,0,0.116,0.1154,0.11,0.1125,0.1118,0.1109,0.1093,0.1092,0.1123,0.1108,0.1113,0.1128,0.1128,0.1135,0.1203,0.1209,0.1168,0.1169,0.1337,0.1343,0.1348,0.1299,0,0,0,0,0,0,0.1162,0.1155,0.1157,0.1125,0.1117,0.1098,0.1092,0.109,0.1119,0.1122,0.1142,0.1146,0.1129,0.1201,0.1205,0.1211,0.117,0.1332,0.1339,0.1346,0.1296,0.1302,0.1308,0,0,0,0,0,0.1165,0.1152,0.1157,0.1152,0.1117,0.1099,0.1095,0.1092,0.1121,0.1128,0.117,0.1148,0.1249,0.1205,0.1209,0.1215,0.1329,0.1337,0.1346,0.1293,0.1301,0.1307,0,0,0,0,0,0,0.1192,0.115,0.1156,0.1136,0.1132,0.1101,0.11,0.1122,0.1155,0.1179,0.1182,0.119,0.125,0.1269,0.1221,0.1302,0.1291,0.13,0.125,0.1257,0.1263,0.1238,0.1172,0,0,0,0,0,0.1197,0.1171,0.1153,0.1142,0.1138,0.1136,0.1137,0.1148,0.1166,0.1182,0.1205,0.125,0.1279,0.13,0.1328,0.1366,0.1363,0.1388,0.1393,0.1397,0.139,0.1388,0.1389,0.1377,0.1377,0.1377,0,0,0.1201,0.1181,0.1165,0.1146,0.1136,0.1125,0.1139,0.1151,0.1159,0.1187,0.1226,0.1269,0.1301,0.1336,0.1366,0.1354,0.141,0.1408,0.1409,0.14,0.1396,0.1396,0.1396,0.1383,0.1382,0.1381,0,0,0.1186,0.1182,0.1153,0.1153,0.1156,0.1147,0.1168,0.1175,0.1194,0.1251,0.1269,0.1323,0.1387,0.1379,0.1391,0.146,0.1442,0.15,0.149,0.1487,0.1485,0.1484,0.1495,0.1494,0.1497,0.1496,0.1496,0,0.1197,0.1158,0.115,0.1137,0.1131,0.1165,0.1153,0.1168,0.1211,0.1229,0.1275,0.1366,0.1392,0.1399,0.1431,0.1459,0.1474,0.1438,0.1484,0.1483,0.1482,0.1493,0.1493,0.1495,0.1495,0.1495,0.1496,0,0.1155,0.1144,0.1132,0.1111,0.1113,0.1112,0.1129,0.1162,0.1219,0.124,0.1307,0.1353,0.1404,0.1428,0.145,0.1464,0.1483,0.1482,0.1437,0.1478,0.1491,0.1491,0.1493,0.1494,0.1494,0.1494,0,0,0.1117,0.1099,0.11,0.1091,0.1104,0.1096,0.1117,0.1126,0.1149,0.1226,0.1253,0.132,0.1373,0.1396,0.1426,0.1432,0.1444,0.1466,0.1467,0.1427,0.1459,0.1379,0.1372,0.1449,0.1449,0.1449,0.1472,0,0.1085,0.1048,0.1052,0.1035,0.1013,0.1051,0.1059,0.1094,0.1146,0.1189,0.1247,0.13,0.1349,0.1392,0.1405,0.1446,0.1445,0.144,0.1471,0.1473,0.1352,0.1369,0.1195,0.1193,0.1473,0.1473,0.1473,0,0.1034,0.1016,0.0984,0.0984,0.098,0.099,0.101,0.103,0.1091,0.1143,0.1206,0.1269,0.1316,0.1354,0.1407,0.1411,0.1438,0.1456,0.1457,0.1393,0.1392,0.1204,0.1183,0.1474,0.1474,0.1474,0.1474,0,0.0981,0.0967,0.0937,0.0937,0.0945,0.0957,0.0977,0.1027,0.1047,0.1122,0.1167,0.123,0.1288,0.1327,0.1411,0.1416,0.1459,0.1458,0.1398,0.1394,0.1254,0.1237,0.1463,0.1463,0.1463,0.1463,0.1463,0,0.0922,0.0906,0.092,0.0905,0.0895,0.0927,0.094,0.0976,0.1033,0.1061,0.1151,0.119,0.1289,0.1343,0.1395,0.1408,0.1448,0.1389,0.1384,0.124,0.1222,0.1475,0.1476,0.1464,0.1463,0.1463,0.1463,0,0.0863,0.0868,0.0842,0.0856,0.0867,0.0871,0.0917,0.0931,0.0998,0.1039,0.107,0.117,0.1248,0.1325,0.1392,0.1377,0.1398,0.1384,0.1219,0.1192,0.1338,0.1338,0.1305,0.1302,0.1299,0.1297,0.1296,0,0.0824,0.0799,0.0807,0.0803,0.0816,0.0834,0.0849,0.0911,0.0931,0.1023,0.1037,0.1133,0.1188,0.1253,0.118,0.1193,0.1361,0.1104,0.1055,0.1318,0.1318,0.1321,0.1324,0.0872,0.0867,0.0863,0.086,0,0.0751,0.0763,0.0747,0.075,0.0763,0.0767,0.0802,0.081,0.0887,0.0925,0.0989,0.104,0.103,0.0962,0.0965,0.0956,0.1084,0.1017,0.1325,0.0933,0.091,0.091,0.0927,0.0823,0.0827,0.0829,0.0831,0.0833,0.071,0.0695,0.0695,0.0696,0.0708,0.0721,0.0725,0.0758,0.0789,0.0838,0.0891,0.0905,0.0812,0.0689,0.0696,0.0699,0.0745,0.079,0.0803,0.082,0.0759,0.0732,0.0603,0.0605,0.0607,0.0609,0.061,0,0.0661,0.0662,0.0646,0.0652,0.0651,0.0692,0.0704,0.0699,0.0727,0.0734,0.0766,0.0563,0.0509,0.0542,0.0396,0.0357,0.0347,0.0471,0.0471,0.0502,0.0531,0.0459,0.0221,0.0221,0.0222,0.0222,0,0,0.0637,0.0612,0.061,0.0604,0.0627,0.0646,0.0659,0.0642,0.0627,0.0553,0.0511,0.0459,0.0433,0.0282,0.0238,0.0267,0.0411,0.0256,0.054,0.0566,0.0597,0.065,0.0564,0,0,0,0,0]},{"header":{"parameterUnit":"m.s-1","parameterCategory":2,"la1":30.2991,"la2":30.254,"lo1":-89.0895,"lo2":-89.0444,"dy":0.0017,"dx":0.0017,"nx":28,"ny":28,"refTime":"2024-09-30T09:00:00:Z","depth":"2","parameterNumber":3,"parameterNumberName":"V-component_of_CURRENTS"},"data":[0,0,0,0,0,0,0,0,0,0,0,0,0,0,0,0,0,0,0,0,0,0,0,0,0,0,0,0,0,0,0,0,0,0,0,0,0,0,0,0,0,0,0,0,0,0,0,0,0,0,0,0,0,0,0,0,0,0,-0.0339,-0.0339,0,-0.0336,-0.0335,-0.0335,-0.0331,-0.0331,-0.0331,-0.0332,-0.0323,-0.0322,-0.0322,0,0,0,0,0,0,0,0,0,0,0,0,0,-0.0283,-0.0284,-0.0339,-0.0339,-0.0339,-0.0336,-0.0335,-0.0335,-0.0331,-0.0331,-0.0331,-0.0332,-0.0323,-0.0322,-0.0322,0,0,0,0,0,0,0,0,0,0,0,0,0,-0.0294,-0.0285,-0.0339,-0.0338,-0.0339,-0.0336,-0.0335,-0.0335,-0.0331,-0.0331,-0.0331,-0.0332,-0.0323,-0.0322,-0.0322,-0.0314,0,0,-0.032,-0.032,0,0,0,0,0,0,0,0,-0.0294,-0.0296,-0.0338,-0.0338,-0.0339,-0.0336,-0.0313,-0.0328,-0.0331,-0.0331,-0.0332,-0.0332,-0.0328,-0.0327,-0.0323,-0.0313,-0.0313,-0.032,-0.032,-0.0319,-0.0319,0,0,0,0,0,0,0,-0.0293,-0.0296,-0.0335,-0.0339,-0.0339,-0.0319,-0.0321,-0.0315,-0.0326,-0.0331,-0.0332,-0.0335,-0.0328,-0.0323,-0.0322,-0.0313,-0.032,-0.0319,-0.0319,-0.0319,-0.0222,-0.022,0,0,0,0,0,0,-0.0301,-0.0296,-0.0335,-0.0335,-0.0319,-0.032,-0.0322,-0.0335,-0.0327,-0.0326,-0.0335,-0.0335,-0.0324,-0.0323,-0.0322,-0.0283,-0.0319,-0.0319,-0.0319,-0.0225,-0.0222,-0.022,0,0,0,0,0,0,-0.03,-0.0305,-0.0335,-0.0316,-0.0319,-0.0322,-0.0335,-0.0335,-0.0308,-0.033,-0.0329,-0.0307,-0.0324,-0.0323,-0.0275,-0.0284,-0.0319,-0.0318,-0.0227,-0.0224,-0.0221,-0.0224,0,0,0,0,0,0,-0.0299,-0.0305,-0.0303,-0.0318,-0.0321,-0.0322,-0.0335,-0.0334,-0.0313,-0.0312,-0.0306,-0.0307,-0.0324,-0.0276,-0.0275,-0.0284,-0.0318,-0.023,-0.0226,-0.0222,-0.0226,-0.0221,-0.0216,0,0,0,0,0,-0.0297,-0.03,-0.0303,-0.0307,-0.0323,-0.0321,-0.032,-0.0321,-0.0311,-0.0297,-0.0271,-0.0306,-0.0249,-0.0272,-0.0272,-0.0282,-0.0232,-0.0227,-0.0222,-0.0229,-0.0222,-0.0216,0,0,0,0,0,0,-0.0265,-0.03,-0.0304,-0.0314,-0.0311,-0.0321,-0.0312,-0.0302,-0.0271,-0.0257,-0.027,-0.0268,-0.0234,-0.0236,-0.0261,-0.0234,-0.0249,-0.0244,-0.0255,-0.0248,-0.0243,-0.0275,-0.0317,0,0,0,0,0,-0.026,-0.0275,-0.0292,-0.0294,-0.0297,-0.0294,-0.0288,-0.0279,-0.0263,-0.0249,-0.0241,-0.0224,-0.0216,-0.0212,-0.0198,-0.0178,-0.0204,-0.0181,-0.0176,-0.0172,-0.0191,-0.0242,-0.0246,-0.0203,-0.0203,-0.0203,0,0,-0.025,-0.0267,-0.0275,-0.0288,-0.0289,-0.0289,-0.029,-0.027,-0.0259,-0.0253,-0.0217,-0.0199,-0.0199,-0.018,-0.0168,-0.0184,-0.0182,-0.0165,-0.0163,-0.0185,-0.0238,-0.0243,-0.0248,-0.02,-0.02,-0.0201,0,0,-0.0239,-0.025,-0.0261,-0.0259,-0.0255,-0.0258,-0.0245,-0.0232,-0.0219,-0.017,-0.0174,-0.0157,-0.0119,-0.0148,-0.0154,-0.0107,-0.0147,-0.0086,-0.0104,-0.0153,-0.0159,-0.0164,-0.0156,-0.0162,-0.0095,-0.0095,-0.0095,0,-0.0224,-0.0242,-0.0256,-0.0259,-0.0257,-0.0243,-0.0237,-0.0226,-0.0188,-0.0177,-0.0151,-0.0116,-0.012,-0.0142,-0.0127,-0.0108,-0.0112,-0.0138,-0.0154,-0.016,-0.0166,-0.0157,-0.0163,-0.0094,-0.0095,-0.0095,-0.0095,0,-0.0228,-0.023,-0.0232,-0.0244,-0.0236,-0.0222,-0.0219,-0.0188,-0.0155,-0.0146,-0.0119,-0.0112,-0.0101,-0.0101,-0.0102,-0.0143,-0.012,-0.014,-0.0187,-0.0172,-0.016,-0.0167,-0.0094,-0.0094,-0.0094,-0.0094,0,0,-0.0232,-0.0239,-0.0236,-0.023,-0.0222,-0.0213,-0.0197,-0.0187,-0.0164,-0.0133,-0.0117,-0.0122,-0.0111,-0.0117,-0.0125,-0.0176,-0.0209,-0.0172,-0.0175,-0.0194,-0.0269,-0.0193,-0.0192,-0.0234,-0.0236,-0.0238,-0.0229,0,-0.0231,-0.0233,-0.0236,-0.0218,-0.0217,-0.0199,-0.0185,-0.0164,-0.0133,-0.0106,-0.0127,-0.0103,-0.0123,-0.0103,-0.0161,-0.0184,-0.0231,-0.0206,-0.0255,-0.0256,-0.0218,-0.02,-0.0202,-0.0191,-0.0236,-0.0237,-0.0238,0,-0.0238,-0.0236,-0.023,-0.0203,-0.0201,-0.0185,-0.015,-0.0131,-0.0112,-0.0082,-0.0084,-0.0074,-0.0121,-0.0136,-0.0221,-0.0195,-0.0238,-0.0272,-0.0272,-0.0217,-0.0193,-0.0218,-0.0201,-0.0249,-0.0248,-0.0247,-0.0246,0,-0.0237,-0.0227,-0.022,-0.0213,-0.0189,-0.0172,-0.0152,-0.0122,-0.0092,-0.0071,-0.003,-0.0079,-0.007,-0.0158,-0.0194,-0.0211,-0.0274,-0.0309,-0.0286,-0.0279,-0.03,-0.0291,-0.0402,-0.0402,-0.0402,-0.0402,-0.0402,0,-0.0239,-0.0227,-0.0216,-0.0208,-0.0177,-0.0161,-0.0117,-0.0095,-0.0056,-0.0013,-0.0021,0.0013,-0.008,-0.0104,-0.018,-0.0218,-0.0263,-0.0289,-0.0285,-0.0288,-0.0279,-0.0356,-0.0351,-0.0402,-0.0402,-0.0402,-0.0402,0,-0.0234,-0.0234,-0.0216,-0.019,-0.0178,-0.015,-0.0092,-0.0053,-0.0017,0.0042,0.0054,0.0077,0.0067,-0.0003,-0.0108,-0.0166,-0.0237,-0.0251,-0.0207,-0.0199,-0.0213,-0.0208,-0.0236,-0.0234,-0.0232,-0.023,-0.0228,0,-0.0234,-0.0227,-0.0199,-0.0178,-0.0163,-0.0122,-0.0083,-0.004,0.0009,0.009,0.0124,0.0151,0.0196,0.0119,0.0014,-0.0076,-0.0149,-0.0153,-0.0212,-0.0209,-0.0203,-0.0201,-0.0198,-0.0223,-0.0222,-0.022,-0.0219,0,-0.022,-0.0211,-0.0192,-0.0152,-0.0114,-0.0064,-0.0006,0.0036,0.0101,0.0167,0.0256,0.03,0.0276,0.0203,0.0109,0.0035,-0.0135,-0.0129,-0.0171,-0.0247,-0.0192,-0.0187,-0.0187,-0.0209,-0.021,-0.0211,-0.0212,-0.0212,-0.0204,-0.0182,-0.0155,-0.0111,-0.0066,0.0005,0.0058,0.0131,0.0223,0.034,0.0355,0.0407,0.0258,0.0165,0.0098,0.0026,-0.0008,-0.0111,-0.0117,-0.0125,-0.0108,-0.0051,-0.0035,-0.0035,-0.0035,-0.0035,-0.0035,0,-0.0177,-0.0148,-0.0108,-0.0049,0.0014,0.0029,0.0122,0.019,0.031,0.039,0.0482,0.0335,0.0292,0.0171,0.0083,0.0013,-0.0016,-0.0017,-0.0086,-0.0096,-0.0104,-0.0089,-0.001,-0.001,-0.001,-0.0009,0,0,-0.0158,-0.0114,-0.0088,0.0017,0.0063,0.0149,0.0206,0.0309,0.0372,0.0449,0.0452,0.0448,0.0261,0.0153,0.0065,0.0047,0.0006,0.0055,0.0037,-0.0042,-0.0049,-0.0162,-0.0148,0,0,0,0,0]}],[{"header":{"parameterUnit":"m.s-1","parameterCategory":2,"la1":30.2991,"la2":30.254,"lo1":-89.0895,"lo2":-89.0444,"dy":0.0017,"dx":0.0017,"nx":28,"ny":28,"refTime":"2024-09-30T09:00:00:Z","depth":"4","parameterNumber":2,"parameterNumberName":"U-component_of_CURRENTS"},"data":[0,0,0,0,0,0,0,0,0,0,0,0,0,0,0,0,0,0,0,0,0,0,0,0,0,0,0,0,0,0,0,0,0,0,0,0,0,0,0,0,0,0,0,0,0,0,0,0,0,0,0,0,0,0,0,0,0,0,-0.0391,-0.0391,0,-0.035,-0.0349,-0.0349,-0.0274,-0.0273,-0.0272,-0.0271,-0.0189,-0.0188,-0.0187,0,0,0,0,0,0,0,0,0,0,0,0,0,-0.0393,-0.0393,-0.0391,-0.0391,-0.0391,-0.035,-0.0349,-0.0349,-0.0274,-0.0273,-0.0272,-0.027,-0.0189,-0.0188,-0.0187,0,0,0,0,0,0,0,0,0,0,0,0,0,-0.0373,-0.0393,-0.0392,-0.0351,-0.0348,-0.0351,-0.0349,-0.0348,-0.0275,-0.0273,-0.0271,-0.027,-0.019,-0.0188,-0.0187,-0.021,0,0,-0.0181,-0.0181,0,0,0,0,0,0,0,0,-0.0374,-0.0373,-0.0358,-0.0354,-0.035,-0.0318,-0.032,-0.0301,-0.0275,-0.0299,-0.0271,-0.0269,-0.0232,-0.0227,-0.0219,-0.0206,-0.0203,-0.0181,-0.018,-0.018,-0.0179,0,0,0,0,0,0,0,-0.0376,-0.0374,-0.0372,-0.0358,-0.0353,-0.0331,-0.0326,-0.0316,-0.0272,-0.0297,-0.0292,-0.0293,-0.0229,-0.0221,-0.0216,-0.0202,-0.0181,-0.018,-0.0179,-0.0178,-0.0128,-0.0127,0,0,0,0,0,0,-0.039,-0.0376,-0.0373,-0.0371,-0.0362,-0.0333,-0.0327,-0.0328,-0.0273,-0.0264,-0.0295,-0.029,-0.0224,-0.0218,-0.0213,-0.0155,-0.018,-0.0178,-0.0177,-0.0128,-0.0128,-0.0127,0,0,0,0,0,0,-0.039,-0.039,-0.0375,-0.0375,-0.0372,-0.0335,-0.0336,-0.0328,-0.0283,-0.0273,-0.0262,-0.0254,-0.0223,-0.0215,-0.0171,-0.0155,-0.0177,-0.0176,-0.0128,-0.0128,-0.0127,-0.0093,0,0,0,0,0,0,-0.0391,-0.0391,-0.0396,-0.0376,-0.0372,-0.0359,-0.0338,-0.0328,-0.029,-0.0282,-0.0235,-0.0228,-0.0221,-0.0173,-0.0169,-0.0153,-0.0174,-0.0129,-0.0128,-0.0128,-0.0095,-0.0092,-0.0089,0,0,0,0,0,-0.0391,-0.0403,-0.0397,-0.0396,-0.0381,-0.0359,-0.0354,-0.032,-0.0289,-0.0271,-0.0232,-0.0227,-0.0167,-0.0171,-0.0167,-0.0149,-0.0129,-0.0128,-0.0128,-0.0096,-0.0092,-0.0089,0,0,0,0,0,0,-0.0403,-0.0396,-0.0389,-0.0397,-0.0373,-0.0346,-0.0338,-0.0304,-0.0259,-0.024,-0.0217,-0.0208,-0.0168,-0.0165,-0.0171,-0.0136,-0.015,-0.0149,-0.0128,-0.0124,-0.0122,-0.0128,-0.0173,0,0,0,0,0,-0.0413,-0.042,-0.04,-0.0405,-0.0394,-0.0358,-0.0343,-0.0309,-0.0273,-0.0249,-0.0208,-0.018,-0.017,-0.0148,-0.0137,-0.0111,-0.0133,-0.01,-0.0097,-0.0095,-0.0098,-0.0131,-0.0131,-0.0125,-0.0125,-0.0125,0,0,-0.0424,-0.0419,-0.0425,-0.0409,-0.0389,-0.0367,-0.0342,-0.0306,-0.0272,-0.025,-0.0181,-0.0164,-0.0162,-0.0134,-0.0117,-0.0121,-0.0104,-0.0094,-0.0091,-0.0097,-0.013,-0.0131,-0.0132,-0.0124,-0.0124,-0.0124,0,0,-0.044,-0.0437,-0.0442,-0.0421,-0.0387,-0.0361,-0.0341,-0.0284,-0.0244,-0.0188,-0.0171,-0.0144,-0.01,-0.0103,-0.0104,-0.0081,-0.0092,-0.0067,-0.0049,-0.008,-0.0081,-0.0082,-0.0096,-0.0099,-0.006,-0.006,-0.006,0,-0.0448,-0.045,-0.0437,-0.0424,-0.0404,-0.0352,-0.0327,-0.029,-0.0216,-0.0188,-0.0158,-0.0108,-0.0097,-0.0094,-0.0078,-0.0075,-0.0084,-0.006,-0.0077,-0.0078,-0.008,-0.0095,-0.0099,-0.0059,-0.0059,-0.0059,-0.0059,0,-0.0456,-0.0454,-0.045,-0.042,-0.0393,-0.0362,-0.0311,-0.0258,-0.0195,-0.0159,-0.011,-0.0093,-0.0063,-0.006,-0.0055,-0.006,-0.0058,-0.0073,-0.0086,-0.0079,-0.0094,-0.0099,-0.0056,-0.0057,-0.0057,-0.0058,0,0,-0.0472,-0.046,-0.0457,-0.0439,-0.038,-0.0353,-0.03,-0.0244,-0.0201,-0.0135,-0.0093,-0.0073,-0.0043,-0.0044,-0.0036,-0.0057,-0.0069,-0.0055,-0.0058,-0.007,-0.0117,-0.013,-0.0136,-0.0079,-0.008,-0.0081,-0.0117,0,-0.0471,-0.0468,-0.0448,-0.0412,-0.0394,-0.0334,-0.029,-0.0229,-0.0168,-0.0112,-0.0098,-0.0054,-0.0045,-0.0015,-0.0035,-0.0057,-0.008,-0.0056,-0.0122,-0.0124,-0.0138,-0.0143,-0.0083,-0.0121,-0.0122,-0.0123,-0.0123,0,-0.0468,-0.0467,-0.0451,-0.0403,-0.0386,-0.034,-0.0253,-0.0206,-0.0139,-0.0093,-0.0053,-0.0027,-0.0021,-0.0022,-0.0064,-0.004,-0.0073,-0.0103,-0.0106,-0.0136,-0.0146,-0.0133,-0.0132,-0.0131,-0.013,-0.013,-0.0129,0,-0.0478,-0.0455,-0.0445,-0.0429,-0.0372,-0.0324,-0.0265,-0.0187,-0.0142,-0.0068,-0.0033,-0.0019,0.0004,-0.0039,-0.0079,-0.0059,-0.0153,-0.0139,-0.0191,-0.0192,-0.0184,-0.0182,-0.0198,-0.0198,-0.0198,-0.0198,-0.0198,0,-0.0463,-0.0457,-0.0441,-0.0429,-0.0374,-0.0319,-0.0238,-0.0179,-0.0109,-0.0081,-0.0013,-0.0024,0.0001,-0.0041,-0.0086,-0.0154,-0.0159,-0.0193,-0.0208,-0.0165,-0.0161,-0.0186,-0.0184,-0.0199,-0.0199,-0.0198,-0.0198,0,-0.0457,-0.0462,-0.0458,-0.0413,-0.0377,-0.0327,-0.0213,-0.0168,-0.0093,-0.0058,-0.0032,-0.0011,-0.0063,-0.0076,-0.0154,-0.0157,-0.0233,-0.027,-0.022,-0.0231,-0.0239,-0.0235,-0.0291,-0.0292,-0.0293,-0.0294,-0.0294,0,-0.0449,-0.0453,-0.045,-0.0427,-0.0388,-0.0305,-0.0245,-0.0156,-0.0129,-0.0095,-0.0107,-0.0111,-0.0114,-0.0209,-0.0246,-0.0302,-0.032,-0.0308,-0.0263,-0.0243,-0.0252,-0.0246,-0.0241,-0.0295,-0.0296,-0.0296,-0.0296,0,-0.0429,-0.0454,-0.0456,-0.043,-0.0373,-0.0319,-0.0239,-0.022,-0.0157,-0.0111,-0.0143,-0.0148,-0.0211,-0.0251,-0.0277,-0.0343,-0.0274,-0.0316,-0.0313,-0.0271,-0.0248,-0.0255,-0.0249,-0.0299,-0.0298,-0.0298,-0.0298,0,-0.0427,-0.0435,-0.0457,-0.0411,-0.0373,-0.0334,-0.029,-0.0254,-0.0214,-0.0169,-0.0224,-0.0247,-0.0248,-0.0285,-0.0361,-0.0362,-0.0347,-0.0298,-0.0296,-0.0293,-0.0279,-0.0249,-0.0319,0,0,0,0,0,-0.0412,-0.0418,-0.041,-0.0392,-0.0371,-0.0337,-0.0292,-0.0264,-0.0231,-0.0241,-0.0206,-0.0273,-0.0301,-0.0351,-0.0355,-0.0397,-0.037,-0.0401,-0.0317,-0.0314,-0.0311,-0.0294,0,0,0,0,0,0,-0.0404,-0.0418,-0.0419,-0.0384,-0.0362,-0.0334,-0.0308,-0.0292,-0.0295,-0.0264,-0.03,-0.0251,-0.0317,-0.0299,-0.0352,-0.0359,-0.0297,-0.0412,-0.0411,-0.0315,-0.0313,-0.031,-0.0292,0,0,0,0,0]},{"header":{"parameterUnit":"m.s-1","parameterCategory":2,"la1":30.2991,"la2":30.254,"lo1":-89.0895,"lo2":-89.0444,"dy":0.0017,"dx":0.0017,"nx":28,"ny":28,"refTime":"2024-09-30T09:00:00:Z","depth":"4","parameterNumber":3,"parameterNumberName":"V-component_of_CURRENTS"},"data":[0,0,0,0,0,0,0,0,0,0,0,0,0,0,0,0,0,0,0,0,0,0,0,0,0,0,0,0,0,0,0,0,0,0,0,0,0,0,0,0,0,0,0,0,0,0,0,0,0,0,0,0,0,0,0,0,0,0,0.0367,0.0367,0,0.0404,0.0404,0.0404,0.0418,0.0418,0.0418,0.0418,0.0323,0.032,0.0317,0,0,0,0,0,0,0,0,0,0,0,0,0,0.0292,0.0293,0.0367,0.0368,0.0368,0.0404,0.0404,0.0404,0.0418,0.0418,0.0418,0.0419,0.0323,0.032,0.0317,0,0,0,0,0,0,0,0,0,0,0,0,0,0.0322,0.0293,0.0367,0.0383,0.0385,0.0404,0.0404,0.0404,0.0418,0.0418,0.0418,0.0419,0.0325,0.032,0.0316,0.0283,0,0,0.0303,0.0302,0,0,0,0,0,0,0,0,0.032,0.0324,0.0379,0.0381,0.0384,0.041,0.0343,0.0358,0.0417,0.0401,0.0418,0.0419,0.0342,0.0336,0.0338,0.0278,0.0274,0.0303,0.0301,0.0299,0.0298,0,0,0,0,0,0,0,0.0318,0.0323,0.0377,0.038,0.0383,0.0383,0.0387,0.0346,0.0363,0.0402,0.0404,0.0415,0.0342,0.0343,0.0336,0.0272,0.0303,0.03,0.0297,0.0295,0.0123,0.0121,0,0,0,0,0,0,0.0323,0.0321,0.0376,0.0379,0.0357,0.0384,0.0389,0.0398,0.0366,0.0364,0.0415,0.0416,0.0349,0.0341,0.0332,0.0246,0.0299,0.0295,0.0292,0.0125,0.0122,0.012,0,0,0,0,0,0,0.0321,0.0327,0.0375,0.0354,0.0361,0.0386,0.0395,0.0399,0.0392,0.0378,0.0373,0.0405,0.0349,0.0338,0.0277,0.0244,0.0293,0.0289,0.0127,0.0124,0.0121,0.0101,0,0,0,0,0,0,0.0318,0.0326,0.0343,0.0354,0.0362,0.038,0.0395,0.0399,0.0401,0.0402,0.0367,0.036,0.0349,0.0283,0.0273,0.0239,0.0286,0.013,0.0126,0.0122,0.0104,0.0097,0.0092,0,0,0,0,0,0.0315,0.0326,0.0343,0.0351,0.0381,0.038,0.0382,0.0399,0.04,0.0394,0.0361,0.0361,0.0251,0.0278,0.0266,0.0231,0.0132,0.0127,0.0122,0.0107,0.0099,0.0092,0,0,0,0,0,0,0.03,0.033,0.0348,0.0369,0.0375,0.0384,0.0391,0.039,0.0362,0.0352,0.0334,0.0323,0.0258,0.024,0.0271,0.0167,0.0191,0.0184,0.0183,0.0175,0.0169,0.0196,0.0282,0,0,0,0,0,0.0307,0.0326,0.0344,0.0361,0.0365,0.0374,0.0379,0.0376,0.0356,0.0346,0.0309,0.0267,0.023,0.0201,0.0162,0.0102,0.0123,0.007,0.0064,0.0059,0.0071,0.0078,0.0075,0.0105,0.0105,0.0105,0,0,0.031,0.0328,0.0342,0.0361,0.0369,0.0366,0.0375,0.0367,0.0352,0.0334,0.0279,0.024,0.0209,0.0147,0.0116,0.0128,0.0057,0.0053,0.0049,0.0064,0.0073,0.007,0.0068,0.0102,0.0102,0.0103,0,0,0.0311,0.0335,0.0347,0.0349,0.0357,0.0354,0.0347,0.0327,0.0311,0.0251,0.0239,0.019,0.0107,0.0095,0.0079,0.0012,0.0026,-0.0024,-0.0035,-0.0029,-0.003,-0.0031,-0.0011,-0.0009,-0.0028,-0.0028,-0.0028,0,0.0318,0.0336,0.0347,0.035,0.0355,0.0345,0.0339,0.032,0.0272,0.0248,0.0224,0.0124,0.0095,0.0057,0.0027,0.0003,0.0007,0.0001,-0.0033,-0.0033,-0.0033,-0.0012,-0.001,-0.003,-0.003,-0.0029,-0.0029,0,0.0317,0.0338,0.0338,0.0346,0.0341,0.0331,0.0309,0.0271,0.0231,0.0207,0.0134,0.0088,0.0035,0.0007,-0.0007,-0.0037,-0.0034,-0.0035,-0.0002,-0.0037,-0.0013,-0.0011,-0.0032,-0.0031,-0.0031,-0.0031,0,0,0.032,0.034,0.0343,0.035,0.0336,0.0327,0.0289,0.0259,0.0231,0.0158,0.012,0.0048,0.0014,-0.0007,-0.0035,-0.0038,-0.0043,-0.005,-0.0049,-0.0008,-0.0029,-0.004,-0.0038,-0.0059,-0.0059,-0.0058,-0.0011,0,0.0322,0.034,0.0339,0.0337,0.0339,0.0314,0.0284,0.0244,0.0193,0.014,0.0097,0.004,0.0013,-0.0028,-0.0036,-0.0049,-0.0039,-0.0055,-0.0019,-0.0018,-0.0006,-0.0037,-0.0058,-0.0009,-0.0008,-0.0008,-0.0007,0,0.0317,0.0335,0.0346,0.034,0.0336,0.0314,0.0266,0.0233,0.017,0.0126,0.0069,0.0028,-0.0007,-0.0022,-0.0031,-0.0049,-0.0039,-0.0034,-0.0032,-0.0028,-0.0025,0.003,-0.0003,-0.0003,-0.0003,-0.0004,-0.0004,0,0.0311,0.0331,0.0345,0.0346,0.0334,0.0309,0.0276,0.0217,0.0189,0.0111,0.0081,0.0029,-0.0002,-0.0007,-0.0016,-0.0034,-0.0001,-0.0017,-0.0001,-0.0001,0.001,0.001,0.0009,0.0009,0.0009,0.0009,0.0009,0,0.0298,0.0309,0.0342,0.0344,0.0329,0.0305,0.0259,0.0215,0.0164,0.0131,0.0068,0.0032,-0.0003,-0.0001,-0.0004,0.0002,0.0011,0.0002,0.0007,-0.0003,-0.0005,0.0012,0.0012,0.0011,0.001,0.001,0.0009,0,0.0266,0.0302,0.0323,0.0333,0.0325,0.0301,0.0253,0.0222,0.0173,0.0131,0.0107,0.0044,0.0015,0.0021,0.0022,0.0022,0.0033,0.0049,0.0055,0.006,0.0028,0.0026,0.005,0.005,0.005,0.005,0.005,0,0.0246,0.0262,0.0314,0.032,0.0314,0.0283,0.0256,0.0214,0.0187,0.0131,0.0115,0.0077,0.0036,0.0023,0.0027,0.0046,0.005,0.0074,0.0027,0.0028,0.0031,0.0029,0.0027,0.005,0.005,0.005,0.005,0,0.0202,0.0241,0.0258,0.029,0.0283,0.0271,0.023,0.0206,0.0161,0.0166,0.0084,0.0046,0.0028,-0.0008,0.0028,0.0038,0.0054,0.0072,0.0072,0.0028,0.0028,0.003,0.0028,0.0049,0.0049,0.0049,0.0049,0,0.0172,0.0179,0.0225,0.0232,0.0249,0.0223,0.0206,0.0161,0.0133,0.0088,0.0067,0.0019,0.0009,-0.0008,0.0016,0.0028,0.0013,0.0014,0.0016,0.0017,-0.0016,-0.0022,-0.001,0,0,0,0,0,0.0138,0.0135,0.0152,0.0164,0.0188,0.0193,0.0179,0.0166,0.015,0.009,0.007,0.0038,0.0006,-0.0019,-0.0015,0.0022,0.0035,0.003,0.0041,0.0048,0.0048,0.0013,0,0,0,0,0,0,0.0114,0.0128,0.0135,0.0111,0.0106,0.0113,0.0103,0.0094,0.0051,0.0041,0.0011,0.0042,0.0008,-0.0003,-0.002,-0.0012,-0.0005,0.0035,0.0035,0.0048,0.0048,0.0048,0.0012,0,0,0,0,0]}]]